Regional Weather Roundup
Issued by NWS Goodland, KS

Home | Current Version | Previous Version | Text Only | Print | Product List | Glossary On
Versions: 1 2 3 4 5 6 7 8 9 10 11 12 13 14 15 16 17 18 19 20 21 22 23 24 25 26 27 28 29 30 31 32 33 34 35 36 37 38 39 40 41 42 43 44 45 46 47 48 49 50
000
ASUS43 KGLD 260008
RWRGLD

GOODLAND FORECAST AREA HOURLY WEATHER ROUNDUP
NATIONAL WEATHER SERVICE GOODLAND KS
600 PM MDT WED APR 25 2018

...OFFICIAL OBSERVATIONS...

CITY           SKY/WX    TMP DP  RH WIND       PRES   REMARKS
GOODLAND KS    SUNNY     60  30  32 CALM      30.08F
HILL CITY KS     N/A     60  36  40 MISG      30.10F
IMPERIAL NEB   SUNNY     61  29  29 S5        30.05F
MCCOOK NEB     SUNNY     62  29  28 CALM      30.06F
AKRON CO       SUNNY     61  22  22 SW7       30.06F
BURLINGTON CO  SUNNY     59  30  33 CALM      30.10F
LIMON CO       SUNNY     62  13  14 CALM      30.10F
$$

...UNOFFICIAL OBSERVATIONS...

CITY           SKY/WX    TMP DP  RH WIND       PRES   REMARKS
COLBY KS       SUNNY     59  34  38 CALM      30.09F
NORTON KS      SUNNY     61  32  33 CALM      30.07
SHARON SPRINGS   N/A     60  32  35 CALM        N/A
KIT CARSON CO    N/A     65  30  27 CALM        N/A
YUMA CO        FAIR      59   5  11 S3        30.06F
$$



USA.gov is the U.S. government's official web portal to all federal, state and local government web resources and services.